Погода в Лопъюваде

Россия / Республика Коми     61°44′47″N   55°11′39″E
темп.,
°C
ветер,
м/с
пор.,
м/с
влажн.,
%
обл.,
%
осадки,
мм/ч
давл.,
гПа
погр.,
м
28 сентября, вт
вт2800:00+1всв118081 0.0 103312
03:000ююз0085100 0.0 103310
06:00+1сз1181100 0.0 103226
09:00+5ссз1266100 0.0 1032373
12:00+6сз235897 0.0 1031756
15:00+7сз235893 0.0 1030934
18:00+3ссз238276 0.0 103051
21:00+4ссз1182100 0.0 103023
29 сентября, ср
ср2900:00+4сз1288100 0.1 102987
03:00+4ссз1395100 0.4 1030144
06:00+4с1396100 0.0 1030182
09:00+6с2486100 0.0 1030482
12:00+7с2478100 0.1 1029730
15:00+7с247692 0.2 1029702
18:00+5ссз1189100 0.0 102916
21:00+4сз1192100 0.0 102824
30 сентября, чт
чт3000:00+4з249196 0.0 1027121
03:00+5зюз3791100 0.1 1026284
06:00+5зюз3893100 0.0 1024365
09:00+6зсз2591100 0.0 1023412
12:00+7ссз3587100 0.0 1023555
15:00+8ссз378695 0.1 1024696
18:00+7ссз3988100 0.0 1024633
21:00+6с378495 0.1 1025466
1 октября, пт
пт100:00+3ссз269596 0.0 1026155
03:00+2с2696100 0.0 1027214
06:00+1с268996 0.0 1027206
09:00+4с246474 0.0 1028461
12:00+6ссз3453100 0.0 1028742
15:00+7ссз24565 0.0 1028827
18:00+2сз227716 0.0 102825
21:00+1сз118230 0.0 102810
2 октября, сб
сб200:000зсз118599 0.0 102810
03:00+1з117897 0.0 102829
06:00+3з1172100 0.0 102840
09:00+4з1276100 0.0 1028152
12:00+7з238090 0.0 1028380
15:00+6з1392100 0.0 1029146
18:00+6зюз1194100 0.0 102921
21:00+6з229159 0.0 102960